SKYNET 5D

Last updated on Fri Dec 19 2025 00:02:50 GMT+0000 (Coordinated Universal Time)

1 39034U 12075A 25352.56444134 .00000124 00000+0 00000+0 0 9997 2 39034 0.0728 359.7111 0003860 266.6470 77.0160 1.00270997 47347
UTC large
Height (km)
Speed (km/s)
/
Latitude / Longitude
Inclination (degrees)
Orbital Period (minutes)
Azimuth
Elevation
Range (km)
Doppler Factor

Next 0 passes for location: London (51.5072 / 0.1276)

Sorry there are no passes over London.